Wind_Speed
83 83 84 84 84 85 85 84 85 85 86 87 87 88 88 89 90 90 91 92 93 93 93 93 93 94 94 95 96 97 98 99 101 102 102 102 102 103 103 105 106 107 108 109 110 111 111 112 113 114 115 116 118 119 121 122 123 124 126 127 128 128 129 129 129 129 130 131 131 131 131 131 132 133 133 131 130 131 132 132 133 135 136 137 139
85 86 87 87 88 89 89 89 89 89 89 90 90 91 91 92 92 93 94 95 96 96 96 96 96 96 97 98 99 100 101 102 104 105 105 105 105 106 107 108 109 110 111 112 113 113 114 114 115 116 118 119 120 122 123 124 126 127 128 129 129 130 129 129 129 130 131 131 131 130 130 131 132 132 131 129 130 130 131 132 134 135 137 138 139
86 87 89 90 91 92 93 93 93 93 93 93 94 94 94 94 95 96 97 98 99 99 99 99 99 99 100 100 102 102 103 104 106 108 108 108 108 109 110 111 112 113 113 114 114 115 115 116 117 119 120 122 123 124 126 127 128 129 130 130 130 130 129 129 129 130 130 130 129 129 130 131 131 130 129 128 129 130 130 132 134 136 137 138 140
87 88 90 91 93 94 95 96 96 97 97 97 97 97 97 98 98 99 100 100 101 102 102 102 103 103 103 104 104 105 105 106 108 109 111 111 111 112 112 113 114 114 115 115 116 116 117 118 119 121 123 124 125 126 128 129 130 130 130 130 130 129 129 129 130 130 129 128 129 129 130 130 129 128 127 128 128 129 130 132 134 136 138 139 140
88 89 90 91 93 95 96 97 98 98 99 100 100 100 101 101 102 102 103 104 104 105 105 105 106 106 106 107 107 107 108 108 109 111 113 113 113 114 115 115 116 116 117 117 118 118 119 120 121 123 124 125 127 128 129 130 131 131 130 129 129 128 129 129 129 128 128 128 128 129 128 128 127 127 127 127 128 129 131 133 135 137 138 140 141
89 89 90 91 92 94 95 96 97 98 99 100 101 102 102 103 104 105 106 107 107 107 108 108 109 109 109 109 109 110 110 110 111 113 114 115 115 116 116 117 117 118 118 119 119 120 121 122 123 124 126 127 128 129 130 130 130 130 129 128 128 128 129 129 128 128 127 127 127 126 127 127 126 126 127 127 128 128 130 132 135 137 139 140 141
90 91 91 92 92 93 94 95 96 97 98 100 101 102 102 103 104 105 106 107 108 109 110 110 111 111 112 112 112 112 112 112 113 114 115 116 117 117 118 118 119 119 120 120 121 122 123 124 125 126 127 128 129 129 130 130 129 128 128 127 127 128 128 128 127 127 126 125 125 125 125 126 125 125 126 128 128 129 130 132 134 137 139 140 141
93 93 94 94 94 94 95 95 96 97 98 99 100 101 101 102 103 104 105 106 107 108 109 110 111 111 112 113 114 114 114 114 115 116 117 117 118 119 120 120 121 121 122 122 123 124 124 125 126 126 127 128 128 128 128 128 127 126 126 126 126 127 127 127 126 125 124 123 123 124 125 125 125 125 126 128 129 130 131 133 134 136 138 140 141
95 96 96 96 97 97 97 97 98 98 99 100 100 101 101 102 102 103 104 105 106 107 107 108 109 109 110 111 112 113 113 114 114 115 116 116 117 118 118 119 119 120 120 121 121 121 122 123 123 124 125 126 126 126 126 125 125 124 124 125 126 126 126 125 124 122 122 122 123 124 124 124 124 125 126 128 129 130 132 134 135 136 137 140 141
98 98 98 99 99 99 100 100 101 101 101 102 102 103 103 103 103 104 104 105 105 106 107 107 108 109 109 109 110 111 111 112 113 113 114 114 115 115 116 116 117 117 118 118 119 119 120 121 122 124 124 124 124 124 124 123 123 124 124 125 125 125 124 122 121 121 121 122 122 123 123 124 124 125 126 128 130 131 133 134 134 136 137 139 140
100 100 101 101 101 102 102 103 103 103 104 104 105 105 105 106 106 106 106 106 107 107 108 109 109 110 110 110 111 111 111 112 113 114 114 115 115 116 116 117 117 118 118 119 119 120 121 123 124 124 124 123 123 123 123 123 123 123 124 124 123 123 121 120 120 121 121 121 122 123 123 123 125 126 127 128 131 132 133 134 135 136 137 138 138
101 102 102 102 103 103 104 104 105 106 106 107 107 108 109 109 109 110 110 111 111 111 112 112 112 113 113 113 113 114 114 115 115 116 116 116 117 117 118 119 119 120 121 121 122 123 124 124 124 124 124 123 123 123 123 123 122 122 122 122 121 120 120 120 120 120 120 121 122 122 123 123 125 126 128 130 131 132 133 134 135 136 137 138 137
103 104 104 105 105 106 106 107 107 108 109 109 110 111 111 112 113 113 114 115 115 115 115 116 116 116 116 116 116 117 117 117 118 117 118 118 118 119 119 120 121 121 122 123 124 124 125 125 124 124 124 123 123 122 122 121 121 121 121 120 120 119 120 120 119 119 119 120 121 122 123 124 126 127 129 130 131 132 133 134 135 136 137 137 136
106 107 107 107 108 108 109 109 110 110 111 111 112 113 114 114 115 116 116 117 118 118 118 118 119 119 119 119 119 119 119 119 119 119 119 119 120 120 121 121 122 122 123 124 124 124 124 124 124 123 123 122 122 121 121 120 120 120 119 119 119 120 120 119 118 118 119 120 121 122 124 125 127 128 130 131 132 132 133 134 134 135 135 135 134
108 108 109 109 110 110 110 111 111 112 113 114 114 115 116 116 117 117 118 119 120 120 120 121 121 121 121 121 121 121 122 122 122 122 122 121 121 122 122 123 123 123 123 124 124 124 123 123 122 121 121 121 120 120 119 119 118 118 118 119 120 119 118 118 117 118 119 120 121 123 125 127 128 129 130 131 132 132 133 133 134 133 132 132 131
109 110 110 111 111 112 112 113 114 114 115 116 116 117 117 118 119 119 120 120 121 121 122 122 122 123 123 123 123 124 124 124 124 124 124 124 123 123 123 123 123 123 123 123 122 122 121 121 120 119 119 118 118 118 117 116 116 117 118 118 118 117 117 117 117 118 119 121 122 124 126 128 129 130 130 131 131 132 132 132 131 130 129 128 128
111 112 112 113 114 114 115 116 117 117 118 119 119 120 120 121 121 122 122 122 122 123 123 123 124 124 124 124 124 124 125 125 125 125 125 125 124 124 124 123 123 122 121 121 120 119 119 118 117 116 116 116 115 114 114 114 115 116 116 116 116 116 117 117 118 119 120 122 123 125 127 128 129 130 130 130 130 130 129 128 128 127 126 125 126
113 114 115 116 117 118 118 119 120 121 122 122 122 123 123 124 124 125 125 125 125 125 126 126 126 125 125 125 125 125 125 125 125 124 124 123 123 122 122 121 120 119 119 118 117 116 115 113 113 113 113 113 112 111 112 113 114 114 114 114 115 116 117 118 119 120 121 123 124 126 127 128 129 129 129 129 128 127 126 125 125 124 124 125 126
116 117 118 119 120 121 122 123 124 124 125 125 125 126 126 127 127 127 127 127 127 127 127 126 126 125 125 125 124 124 124 123 123 123 122 121 120 119 118 117 116 116 115 114 112 111 110 110 110 111 110 110 109 109 111 112 112 112 113 114 115 116 117 119 120 121 123 124 125 126 127 127 127 127 126 126 125 124 124 123 123 123 123 125 126
120 121 122 122 123 124 124 125 126 126 126 126 126 126 127 126 126 126 126 126 125 125 124 123 123 122 122 122 121 121 121 120 120 119 118 117 116 115 114 113 112 111 110 108 107 107 107 107 107 107 107 107 108 109 110 110 111 112 113 114 115 117 119 121 122 123 123 124 124 125 125 125 125 124 123 122 122 122 122 122 122 123 124 125 126
121 122 122 123 123 124 124 124 125 125 125 124 124 124 123 123 123 122 122 121 121 120 120 119 119 118 118 117 117 116 116 116 115 114 113 112 111 110 109 108 107 105 104 104 104 104 104 104 104 105 106 106 107 108 109 110 111 112 114 115 116 118 120 121 122 122 122 122 123 123 123 122 122 121 120 120 120 120 121 121 122 124 125 126 127
119 119 119 119 120 120 120 120 120 120 120 119 119 118 118 117 117 116 116 115 114 114 113 113 113 112 111 111 110 109 109 109 108 107 107 106 105 104 103 102 102 102 101 102 102 102 102 102 103 104 105 105 106 108 109 110 112 113 115 116 118 119 120 120 120 120 121 121 121 120 120 119 118 118 118 119 119 120 121 122 123 125 127 128 129
112 112 112 113 113 113 114 114 114 115 114 114 114 113 112 112 111 111 110 110 109 108 106 105 104 103 103 102 102 101 101 100 100 100 100 100 99 99 99 99 99 99 99 99 100 100 100 101 103 104 105 106 107 109 110 112 113 114 116 117 117 118 118 118 119 119 119 119 118 117 116 115 115 116 117 118 119 120 121 123 125 126 128 129 130
104 104 104 104 105 106 107 108 109 109 109 109 108 108 107 107 106 106 105 104 102 101 99 98 96 95 94 93 93 93 93 93 94 94 95 96 96 96 96 96 97 97 98 98 99 100 100 102 103 104 105 106 108 109 111 112 114 114 115 116 116 116 116 117 118 118 117 116 115 114 114 113 114 115 116 118 119 121 123 124 126 128 129 131 132
93 94 95 96 98 100 102 103 103 103 102 102 101 100 99 99 99 98 98 97 95 94 93 91 90 89 88 88 88 88 89 90 91 93 93 94 94 94 95 95 96 97 98 99 100 100 101 103 104 105 106 107 108 110 111 112 114 114 115 115 115 115 115 116 116 115 114 113 112 112 112 112 113 115 116 118 120 122 124 125 127 129 130 132 133
84 85 86 88 90 92 93 94 94 94 94 94 93 92 92 91 91 90 90 89 88 88 87 87 86 86 86 86 86 87 88 89 91 92 93 94 94 94 95 96 97 98 99 100 101 102 103 104 105 106 107 108 109 110 112 113 114 115 115 115 115 115 115 115 114 112 110 110 110 110 111 112 114 116 118 120 122 123 125 127 128 130 131 132 134
77 77 77 78 79 80 81 82 83 84 85 85 86 86 86 86 85 85 84 84 83 83 83 83 84 85 85 86 86 87 88 90 92 93 94 95 95 96 97 98 99 100 101 101 102 103 104 105 106 106 107 108 110 111 113 114 114 114 114 115 114 114 113 111 110 108 108 107 109 110 112 114 116 118 119 121 123 125 126 128 130 131 132 134 135
69 69 69 70 70 71 72 73 74 76 77 78 79 80 81 81 82 82 81 81 81 80 81 81 82 83 84 86 87 88 90 92 93 95 96 96 97 98 99 99 100 101 102 103 103 104 104 105 106 107 108 109 110 111 113 114 114 114 114 113 113 111 109 108 106 106 106 107 109 111 114 116 118 119 120 122 125 126 128 130 131 133 134 135 137
63 64 64 65 65 66 67 68 70 71 72 73 75 76 77 78 79 80 80 80 80 80 80 81 81 82 83 85 87 88 90 92 94 96 97 98 99 100 100 101 101 102 102 103 103 103 104 105 106 107 108 109 110 111 112 113 113 113 112 111 110 108 106 105 104 105 106 108 110 113 115 117 119 120 122 124 127 129 130 132 134 135 136 137 138
61 62 62 63 64 64 65 65 66 67 68 69 71 72 73 75 76 78 79 80 81 81 81 82 82 83 84 85 86 87 89 91 93 94 95 96 97 98 99 99 100 100 101 101 102 102 103 104 106 107 108 109 110 111 111 112 111 110 109 108 106 104 103 103 104 106 108 110 112 114 116 118 120 122 124 126 128 131 133 134 136 137 138 139 140
60 60 61 61 61 62 62 62 63 63 64 65 67 69 70 72 73 75 77 78 80 81 82 83 83 84 84 85 86 87 88 89 91 92 93 94 95 96 97 98 98 99 99 100 101 102 103 104 106 107 108 108 108 109 109 109 108 107 106 104 103 102 103 104 106 108 110 112 114 116 118 120 122 124 126 128 130 132 135 136 137 138 139 140 142
60 59 59 59 60 60 60 61 61 61 63 65 67 69 71 72 74 75 75 77 78 79 81 83 84 85 85 86 87 87 88 89 90 91 92 93 94 95 96 97 97 98 98 99 100 101 103 105 105 106 106 106 106 106 106 105 105 104 103 102 102 102 104 106 108 111 113 115 116 118 120 123 125 126 128 130 132 134 137 138 139 139 140 142 143
60 60 60 60 60 61 61 62 63 64 66 68 70 72 74 76 77 78 78 78 79 79 79 80 81 83 85 86 87 88 89 89 90 91 92 93 94 95 96 96 97 98 98 99 100 101 103 103 103 103 103 103 103 103 103 103 103 102 102 103 103 105 106 109 111 113 115 117 119 121 123 125 126 128 130 132 134 136 138 139 140 141 142 144 145
63 64 64 64 64 65 65 65 66 68 70 72 74 77 79 81 82 82 81 81 81 81 81 80 80 80 81 83 85 86 88 89 90 91 93 94 95 96 96 96 97 98 98 99 99 99 100 101 101 101 101 101 101 101 101 101 102 103 104 105 107 108 110 112 114 116 119 120 122 123 125 126 128 130 132 134 136 138 139 140 141 142 144 146 147
68 68 69 69 70 70 70 70 71 73 75 76 79 82 85 87 87 86 84 83 82 82 82 83 82 82 81 81 81 82 84 85 87 88 90 92 94 95 95 95 96 96 97 97 97 97 97 98 98 99 99 99 99 100 101 102 104 106 107 109 110 112 113 115 117 119 121 122 124 125 127 129 131 133 134 136 137 139 140 141 143 145 146 148 149
72 73 73 74 74 75 75 76 78 79 81 83 86 89 92 92 91 89 86 83 83 83 83 83 84 84 83 82 82 82 83 83 84 85 87 89 90 91 92 93 94 94 94 95 95 95 95 96 97 98 99 100 100 101 103 105 107 109 111 113 114 115 116 118 120 122 124 125 126 127 129 131 133 135 136 138 139 140 142 143 145 147 148 149 150
75 75 76 77 78 79 80 82 84 86 88 91 94 96 98 97 94 91 88 85 83 83 83 84 85 85 85 85 85 85 85 84 84 85 86 87 88 89 89 90 91 92 93 94 95 96 97 97 99 101 102 103 104 106 107 109 111 113 114 116 117 118 119 120 122 124 126 127 128 130 132 134 135 137 138 139 141 143 144 146 147 149 150 151 152
79 79 79 80 82 84 86 88 90 92 95 98 100 101 102 100 96 92 90 87 84 83 83 84 84 85 86 87 87 88 87 86 86 86 86 87 88 89 90 91 92 93 94 96 98 99 100 101 103 104 106 108 109 110 112 113 114 115 116 117 118 119 120 122 124 126 127 129 131 132 134 136 137 139 140 142 143 145 147 148 149 151 152 152 153
86 86 86 87 88 90 91 93 95 98 100 102 104 104 105 103 99 94 90 88 86 84 83 83 84 84 84 85 85 86 86 86 87 87 88 89 90 90 91 92 93 94 96 97 99 100 101 103 104 106 107 109 110 112 113 114 115 116 117 118 119 120 122 124 126 128 130 131 133 134 136 138 139 141 143 144 146 148 149 150 151 152 153 153 153
94 93 93 94 95 96 97 98 100 102 105 106 107 108 107 105 101 95 91 89 87 85 84 84 84 84 84 84 84 85 85 86 87 88 89 90 91 92 92 93 94 95 96 98 100 101 102 103 104 106 107 109 110 112 113 114 116 117 118 120 121 122 124 126 128 130 132 133 135 137 138 140 142 143 145 147 148 150 151 152 153 153 154 153 152
100 99 99 99 100 101 103 104 106 108 109 111 111 111 109 107 102 97 93 91 88 87 86 85 85 86 86 86 86 86 86 87 89 90 91 92 93 94 95 96 97 98 99 100 102 103 104 105 106 108 109 111 112 114 115 116 118 119 121 122 123 125 127 129 131 132 134 136 138 139 141 143 144 146 148 149 151 152 153 154 154 154 154 153 151
104 103 103 104 105 106 107 109 111 112 114 115 114 113 111 108 104 99 95 93 92 89 88 87 88 88 89 89 89 89 89 90 92 93 94 95 96 97 98 99 100 101 102 103 104 106 107 108 110 112 113 114 115 116 118 119 121 122 123 125 126 128 130 132 134 136 138 139 141 142 144 145 147 148 150 151 153 154 154 154 154 153 152 151 150
107 107 107 108 109 110 112 113 115 116 117 118 117 115 112 109 105 100 97 96 95 93 91 91 91 91 91 91 92 92 93 94 95 96 97 98 100 101 102 103 103 104 105 106 107 109 110 112 114 115 116 117 118 119 121 122 124 125 127 128 129 131 133 135 137 139 141 142 144 145 146 148 149 151 152 153 154 155 155 154 153 152 151 149 147
110 110 111 113 114 115 117 118 119 120 121 120 119 117 114 111 106 101 98 97 96 95 94 93 94 94 95 95 95 96 97 98 99 100 101 102 103 105 106 106 107 108 109 110 111 113 115 116 117 118 119 120 122 123 124 126 127 129 130 132 133 135 137 139 141 143 144 145 146 148 149 150 152 153 154 154 155 154 154 153 151 150 148 145 141
113 114 115 117 118 120 121 122 123 124 124 123 121 119 117 113 107 102 99 98 98 97 96 96 96 97 97 98 99 100 101 102 103 104 105 106 107 108 109 110 111 112 114 115 116 118 119 120 121 122 123 124 125 126 128 129 131 133 134 136 137 139 141 143 144 146 147 148 149 150 151 152 153 154 154 154 154 153 152 150 148 146 142 138 134
117 118 120 122 123 125 126 127 127 127 127 126 125 122 119 114 108 102 100 99 99 98 98 98 99 99 100 102 103 104 106 106 107 108 109 110 111 112 113 115 116 117 118 119 121 122 123 124 125 126 126 127 129 130 131 133 135 136 138 140 141 143 144 146 148 149 150 151 152 152 153 153 154 154 153 153 152 150 149 146 143 139 135 131 128
122 124 125 127 129 130 130 131 131 131 130 129 128 125 121 115 108 103 100 99 99 99 99 100 101 102 103 105 106 108 109 110 111 112 113 114 115 117 118 119 120 121 122 123 124 126 127 128 129 130 130 131 133 134 135 137 138 140 142 144 145 146 148 149 150 151 152 152 153 153 153 153 153 152 151 150 148 146 143 139 135 131 128 125 123
128 130 131 132 133 133 134 134 134 134 134 133 131 128 123 115 107 103 101 100 100 100 101 103 104 105 106 108 109 111 112 113 114 115 117 118 120 121 122 123 123 124 126 127 129 130 131 132 133 133 134 135 137 138 139 141 143 144 146 147 149 150 151 152 152 153 153 153 153 153 152 152 151 149 147 145 141 138 135 131 128 126 124 122 120
133 134 135 135 136 136 137 137 137 137 137 136 134 130 123 114 107 104 102 102 102 103 104 106 107 108 110 111 113 114 115 116 118 119 121 122 123 124 125 126 127 129 130 131 132 133 134 135 136 137 138 139 141 142 144 145 147 148 149 150 151 152 152 153 153 153 152 152 152 151 150 148 146 143 140 137 134 131 129 127 124 122 121 119 117
137 137 138 138 139 139 140 140 140 140 139 138 135 129 121 113 108 106 105 104 105 106 107 109 110 112 113 115 116 118 119 120 122 123 124 125 126 127 129 130 131 132 133 134 135 136 137 139 140 141 142 143 145 146 147 148 149 150 151 152 152 152 152 152 152 151 151 149 148 146 143 140 138 135 132 130 128 126 125 123 121 119 117 115 113
140 141 141 142 142 142 143 143 143 142 141 139 134 126 118 113 110 109 109 108 109 110 111 112 114 116 117 119 120 121 122 123 124 125 127 128 129 131 132 133 134 135 136 137 139 140 141 143 144 145 146 147 148 148 149 150 150 151 151 151 151 151 150 150 148 147 145 142 139 137 135 133 131 129 127 126 124 122 121 119 117 114 112 110 107
Wind_Direction
269 270 271 272 272 272 272 273 273 273 274 274 275 275 276 277 278 279 280 280 281 282 283 283 283 284 284 284 285 286 286 287 288 289 290 291 291 292 292 292 293 293 294 295 296 296 297 298 298 299 299 299 300 300 301 302 302 303 304 304 305 306 306 307 308 309 309 310 311 312 312 312 312 313 314 315 316 316 317 318 318 318 319 319 319
271 271 272 273 274 274 275 275 275 275 275 275 276 276 276 277 278 279 280 280 281 282 282 283 284 284 284 285 285 285 286 287 288 289 290 290 291 292 292 292 293 294 294 295 296 296 297 298 298 299 299 299 300 300 301 302 302 303 303 304 305 306 306 307 308 308 309 310 311 311 311 311 311 312 314 315 315 316 317 317 318 318 318 319 319
270 271 271 272 273 274 274 275 275 276 276 276 276 277 277 278 278 279 280 280 281 282 282 283 284 284 285 285 285 286 286 287 288 289 289 290 291 292 292 293 293 294 295 295 296 296 297 297 298 298 299 299 300 300 301 301 302 302 303 304 305 305 306 306 307 308 309 310 310 310 310 310 311 312 314 314 315 316 317 317 317 317 318 318 318
270 270 270 271 272 272 273 274 275 275 276 276 277 277 278 278 279 280 280 281 281 282 283 284 284 285 285 285 286 286 287 287 288 289 289 290 291 291 292 293 293 294 295 295 296 296 297 297 297 298 298 299 299 300 300 301 302 302 303 303 304 305 305 306 307 308 308 309 309 309 309 310 311 312 313 314 315 316 316 316 317 317 317 317 318
270 270 270 271 271 272 272 273 274 275 276 276 277 278 278 279 279 280 281 281 282 282 283 284 284 285 285 286 286 287 287 288 288 289 289 290 291 292 292 293 293 294 294 295 296 296 296 297 297 297 298 298 299 299 300 300 301 301 302 303 304 304 305 305 306 307 307 308 308 308 309 310 311 312 313 314 315 315 316 316 316 316 317 317 317
270 270 271 271 271 272 273 273 274 275 276 277 277 278 279 279 280 281 281 282 282 283 284 284 285 285 286 286 287 287 287 288 288 289 289 290 291 292 292 293 293 294 294 295 295 295 296 296 296 296 297 297 298 298 299 300 300 301 302 302 303 303 304 305 306 306 307 307 307 308 309 310 311 312 313 313 314 315 315 315 316 316 316 316 317
270 270 271 271 272 272 273 274 275 275 276 277 278 278 279 280 280 281 281 282 282 283 283 284 285 285 286 286 287 287 287 288 288 288 289 290 290 291 292 292 292 293 293 294 294 294 294 295 295 295 296 297 297 298 299 299 300 300 301 302 302 303 304 304 305 305 306 307 307 308 309 310 311 312 312 313 313 314 314 314 315 315 315 316 317
271 272 272 272 273 273 274 274 275 276 276 277 277 278 279 279 280 280 281 281 282 282 283 284 284 284 285 286 286 286 287 287 287 288 288 289 289 290 290 291 291 292 292 292 293 293 293 294 294 295 296 296 297 298 298 299 299 300 300 301 301 302 303 303 304 305 306 306 307 308 309 310 311 311 312 312 313 313 314 314 314 314 315 315 316
272 273 273 274 274 275 275 275 276 276 276 277 277 278 278 279 279 280 280 281 281 282 282 283 283 284 284 285 285 286 286 287 287 288 288 289 289 290 290 291 291 291 292 292 292 293 293 294 294 295 295 296 297 297 297 298 298 299 299 300 301 301 302 303 304 305 306 306 307 308 309 310 310 310 311 312 312 312 313 313 313 314 314 315 316
272 273 274 274 275 276 276 277 277 277 278 278 278 278 279 279 279 280 280 280 281 281 282 282 283 283 284 284 285 285 286 287 287 288 288 289 289 289 290 290 291 291 291 292 292 292 293 293 294 294 295 296 296 296 297 297 298 298 299 300 300 301 302 303 304 305 306 306 307 308 309 309 309 310 310 311 311 311 312 312 313 313 314 315 316
272 273 273 274 275 275 276 277 278 278 278 279 279 279 280 280 280 280 280 281 281 282 282 282 283 283 283 284 284 284 285 285 286 286 287 287 288 288 288 289 289 290 290 290 291 291 292 292 293 294 295 295 295 295 296 296 297 298 299 299 300 301 302 303 304 305 306 306 307 307 308 308 309 309 310 310 310 311 311 312 312 313 314 315 315
273 273 274 274 275 275 276 277 277 278 278 279 279 280 280 280 281 281 282 282 282 283 283 283 283 284 284 284 284 285 285 285 285 286 286 286 287 287 287 288 288 288 289 289 290 290 291 292 293 293 294 294 294 295 296 296 297 298 299 299 300 301 302 303 304 305 305 306 306 307 307 307 308 308 309 309 310 310 311 312 312 313 313 314 314
274 274 275 275 276 276 277 277 277 278 278 279 279 279 280 281 281 282 282 283 283 284 284 284 285 285 285 285 285 285 286 286 286 286 286 286 286 287 287 287 287 287 288 288 289 290 291 291 292 292 293 293 294 295 295 296 297 298 299 300 300 301 302 303 304 305 305 305 305 306 306 307 307 307 308 309 309 310 311 311 312 313 313 313 314
274 274 275 275 276 276 277 277 278 278 278 279 279 280 280 281 281 282 282 283 283 283 284 284 284 284 284 285 285 285 285 285 285 285 285 286 286 286 286 286 286 286 287 287 288 289 289 290 291 291 292 292 293 294 295 296 297 298 299 299 300 301 302 303 303 304 304 304 305 305 306 306 306 307 307 308 309 310 311 311 312 312 312 313 314
273 273 274 274 275 276 276 277 277 277 278 278 279 279 280 280 280 281 281 282 282 282 283 283 283 283 283 283 284 284 284 284 284 284 284 284 284 284 285 285 285 285 286 286 287 287 288 289 290 290 291 292 293 294 295 296 297 298 298 299 300 301 301 302 302 303 303 303 304 304 305 305 306 307 307 308 309 310 310 311 311 312 312 313 314
272 273 274 274 275 275 276 276 277 277 278 278 279 279 279 280 280 280 280 281 281 281 281 282 282 282 282 282 283 283 283 283 283 283 283 284 284 284 284 284 284 285 285 286 286 287 287 288 289 290 291 292 293 294 295 296 297 297 298 299 299 300 301 301 302 302 302 303 303 304 304 305 306 306 307 308 309 309 310 310 311 312 313 314 315
273 274 275 275 276 276 277 277 277 278 278 279 279 280 280 280 280 280 281 281 281 281 281 281 281 281 281 281 282 282 282 282 282 282 282 283 283 283 283 284 284 284 285 285 286 286 287 288 289 290 291 292 293 294 295 296 296 297 298 298 299 299 300 300 300 301 301 302 303 303 304 305 306 307 307 308 309 309 310 310 311 312 313 314 315
274 275 275 276 276 277 277 278 278 279 279 279 280 280 280 280 280 280 280 280 281 281 281 280 280 280 280 280 280 281 281 281 281 281 281 282 282 282 283 283 283 284 284 285 286 287 288 289 290 291 291 293 294 294 295 295 296 296 297 297 298 298 299 299 299 300 301 302 303 303 304 305 306 306 307 308 308 309 309 310 311 312 313 314 314
276 276 276 277 277 278 278 278 279 279 279 279 279 280 280 280 280 280 280 280 280 280 280 280 280 280 280 280 280 280 280 280 280 281 281 281 282 282 283 283 284 284 285 286 287 288 289 290 290 291 292 293 293 294 294 295 295 295 296 296 297 297 298 298 299 300 301 302 303 304 304 305 306 306 307 308 308 309 309 310 311 312 313 314 315
278 278 278 279 279 279 279 279 279 279 279 279 279 280 280 280 280 280 280 280 280 280 280 280 280 280 280 280 280 280 280 280 281 281 282 282 283 283 284 284 285 286 287 288 289 289 290 290 291 291 292 292 293 293 293 294 294 294 295 295 296 297 297 298 300 301 302 302 303 304 304 305 306 307 307 308 308 309 310 311 311 312 313 314 315
279 280 280 280 280 280 279 279 279 279 279 279 279 279 279 279 279 279 279 280 280 280 280 280 280 280 280 280 280 280 280 281 281 282 282 283 284 284 285 286 287 288 288 289 289 290 290 290 290 291 291 292 292 292 292 293 293 294 294 295 296 297 298 299 300 301 302 303 303 304 305 306 306 307 307 308 308 309 310 311 312 312 313 314 316
280 280 279 279 279 279 278 278 278 278 278 278 278 278 277 277 278 278 278 278 278 279 279 279 279 279 279 279 280 280 280 281 281 282 283 284 284 285 286 287 288 288 288 289 289 289 289 289 289 290 291 291 292 292 292 292 293 293 294 295 296 297 299 300 301 301 302 303 304 305 305 306 306 307 307 308 309 310 311 311 312 313 314 315 316
279 279 279 279 278 278 278 278 277 277 277 277 277 277 277 277 277 277 277 277 277 277 278 278 278 279 279 280 280 280 281 282 282 283 283 284 285 285 286 286 287 287 288 288 288 288 288 288 289 289 290 291 291 291 292 292 292 293 294 296 297 298 299 300 301 302 303 303 304 305 305 306 306 307 308 308 309 310 311 312 312 313 314 315 315
279 279 279 279 278 278 277 277 277 276 276 276 276 276 276 276 276 276 276 276 276 277 277 278 278 279 280 280 281 281 282 282 282 283 283 283 284 284 285 285 286 286 286 286 286 287 288 288 289 289 290 290 291 291 291 292 293 294 295 296 298 299 300 301 301 302 303 303 304 304 305 305 306 307 308 309 310 310 311 312 313 313 314 314 315
279 279 279 278 278 277 277 277 276 276 276 276 276 276 276 276 276 276 276 276 277 277 277 277 277 278 278 279 279 280 281 281 281 282 282 282 283 284 284 284 284 285 285 285 286 287 287 288 289 289 290 290 291 291 292 293 294 295 296 297 298 299 300 301 301 302 302 303 303 304 304 305 306 307 308 309 310 310 311 312 312 313 313 314 314
280 279 279 278 278 277 277 277 277 277 277 278 278 278 278 278 278 278 278 278 277 277 277 277 276 276 277 278 278 279 279 280 280 280 281 281 282 282 283 283 283 284 285 285 286 287 288 288 289 290 290 291 291 292 292 293 294 295 296 297 298 299 300 300 301 301 302 302 303 304 304 305 306 307 308 309 310 310 311 312 312 312 313 313 314
281 281 281 281 281 281 280 280 280 280 280 280 280 280 280 280 280 280 280 279 279 278 278 277 276 276 276 276 276 277 278 278 279 279 280 281 281 282 282 283 284 284 285 286 287 288 288 289 290 290 291 291 291 292 293 294 295 296 296 297 298 298 299 299 300 300 301 302 303 304 305 305 306 307 308 309 310 311 311 312 312 312 312 313 313
282 282 283 283 284 284 285 285 285 285 285 285 285 285 284 284 283 282 282 281 281 280 279 279 278 278 277 277 277 277 277 278 278 279 280 281 281 282 283 283 284 285 286 287 287 288 289 289 290 290 291 291 292 293 293 294 295 295 296 297 297 298 298 299 299 300 300 302 303 304 305 306 306 307 308 309 309 310 311 311 311 311 312 312 313
281 282 283 284 285 287 288 289 290 290 291 290 290 290 289 289 288 287 286 284 283 282 282 281 280 280 280 279 279 279 279 279 279 280 280 281 281 282 283 284 284 285 286 287 288 288 289 289 290 290 291 291 292 293 293 294 295 295 296 296 297 297 298 298 298 299 300 301 302 303 304 305 306 307 307 308 309 309 310 310 310 311 311 312 313
280 281 283 285 287 289 291 292 293 294 294 294 293 293 292 292 291 290 289 288 287 285 284 283 282 282 281 281 281 281 281 281 281 281 282 282 283 283 284 284 285 286 287 287 288 288 289 289 289 290 291 291 292 293 293 294 295 295 296 296 297 297 298 298 298 299 300 301 302 303 304 304 305 306 307 307 308 308 309 309 309 310 311 312 313
282 284 286 288 290 292 294 295 296 297 298 298 298 297 296 295 294 293 291 290 289 288 286 285 284 283 283 282 282 282 282 282 282 283 283 283 284 284 284 285 285 286 287 287 288 288 288 288 289 290 290 291 292 293 294 294 295 296 296 297 297 297 297 298 298 299 300 301 302 303 303 304 304 305 306 306 307 307 308 308 309 310 311 312 313
285 286 289 291 293 294 295 297 298 299 301 302 303 303 302 300 298 297 295 294 292 290 289 287 286 285 284 283 282 282 282 282 282 282 283 283 283 283 284 284 285 286 286 286 287 287 287 288 289 290 291 292 293 294 294 295 295 295 296 296 297 297 297 298 299 300 300 301 302 302 303 303 304 304 305 305 306 306 307 308 309 310 311 312 312
286 287 289 291 292 294 295 297 298 300 302 303 304 305 305 305 303 301 299 297 295 293 291 290 288 287 286 285 284 283 282 282 282 282 282 282 282 282 283 283 284 284 285 285 286 287 288 289 290 291 292 293 294 294 295 295 295 295 296 296 297 297 298 299 299 300 300 301 301 302 302 303 303 304 304 304 305 306 307 308 309 310 311 311 312
286 287 288 289 291 293 294 296 298 300 301 302 304 305 307 308 307 305 301 298 296 295 293 292 290 289 289 288 287 286 285 285 284 284 284 283 283 283 284 284 285 285 286 287 288 289 290 291 292 293 294 294 294 295 295 294 294 295 295 296 297 297 298 299 299 300 300 300 301 301 302 302 302 302 303 304 305 306 307 308 309 309 310 311 312
290 290 290 291 292 293 294 295 297 298 300 303 305 307 308 308 308 307 304 300 296 294 293 292 291 291 290 290 290 290 290 289 289 288 288 287 287 288 288 288 289 289 290 291 291 292 293 293 294 295 295 295 295 295 294 294 294 295 295 296 297 297 298 299 299 299 300 300 300 300 300 301 301 302 303 304 305 306 307 307 308 309 309 310 311
294 294 295 295 296 297 298 298 299 301 303 305 308 310 310 310 308 307 305 301 296 292 291 291 290 290 290 291 292 292 292 292 292 292 291 291 291 291 291 292 292 292 293 293 293 294 294 295 295 295 296 296 296 295 295 295 295 295 295 296 297 298 298 299 299 299 299 299 299 299 300 300 301 302 303 304 304 305 306 307 307 308 309 310 311
297 298 298 300 300 301 302 303 305 306 308 309 311 312 313 312 309 306 304 302 297 292 289 288 289 289 289 290 291 291 292 292 292 292 292 293 293 293 293 293 293 294 294 294 294 294 294 295 295 295 295 295 295 295 295 295 295 295 296 297 297 298 298 298 298 298 298 298 298 299 300 300 301 302 303 304 304 305 306 306 307 308 309 309 310
300 300 300 301 303 304 306 306 308 309 310 311 311 312 313 312 308 304 302 300 297 292 289 288 288 288 288 289 290 290 291 291 291 291 292 292 293 293 293 293 293 293 294 294 294 294 294 294 294 294 294 295 295 295 295 295 295 295 296 296 296 297 297 297 297 297 297 298 298 299 300 301 301 302 303 303 304 304 305 306 307 307 308 309 310
301 302 302 303 304 305 305 306 306 308 309 310 311 312 312 311 308 303 300 298 296 292 290 288 288 289 289 289 289 289 289 289 289 290 290 291 292 292 293 293 293 293 294 294 294 294 294 295 295 295 295 295 295 295 295 295 295 295 295 295 295 296 296 296 296 297 297 298 299 299 300 301 301 302 302 303 303 304 305 305 306 307 307 308 309
302 302 302 303 304 304 305 306 307 308 309 310 310 311 311 310 307 302 299 297 294 291 289 289 289 289 289 288 288 287 287 288 288 289 290 291 292 292 293 293 293 293 293 294 294 294 295 295 295 295 295 295 294 294 294 294 294 294 294 295 295 295 296 296 297 297 298 298 299 299 300 300 301 301 302 302 303 303 304 305 305 306 307 307 308
301 301 302 303 304 305 306 307 308 308 308 309 309 309 309 308 305 301 297 295 293 291 289 288 289 289 289 288 287 287 287 288 289 290 290 291 291 291 292 292 292 293 293 293 294 294 294 295 295 295 295 295 294 294 294 294 294 294 295 295 296 296 297 297 297 298 298 298 298 299 299 300 300 301 301 302 302 303 303 304 305 305 306 307 307
300 301 302 303 304 305 305 305 306 306 307 308 308 308 308 307 304 299 295 293 292 290 288 288 288 289 288 288 287 287 288 288 289 290 290 290 291 291 291 291 292 292 293 293 293 294 294 295 295 296 296 296 295 295 294 294 294 294 295 295 296 296 297 297 297 297 297 297 297 298 299 299 300 300 300 301 301 302 303 303 304 305 305 306 306
299 300 301 302 303 303 303 304 304 305 306 307 308 308 307 306 303 298 293 291 290 289 288 288 288 288 288 288 288 288 289 289 290 290 290 291 291 291 291 292 292 292 293 293 293 294 295 295 296 296 296 296 295 295 294 294 294 294 295 295 295 296 296 296 296 296 296 296 297 298 298 298 299 299 300 300 301 302 302 303 304 304 304 305 305
299 300 300 301 302 302 302 303 304 305 306 307 307 307 306 304 301 297 292 290 289 288 287 287 288 288 288 289 289 289 290 290 290 291 291 291 292 292 292 292 293 293 293 294 294 294 295 295 295 295 295 295 294 294 294 294 294 294 294 294 294 295 295 295 295 295 295 296 296 297 297 298 298 299 299 300 300 301 302 302 303 303 303 303 304
298 299 299 300 300 301 301 302 303 305 306 307 307 306 305 304 300 295 291 289 288 287 287 287 287 287 288 288 289 290 290 291 291 291 291 292 292 292 293 293 293 294 294 294 294 294 294 294 294 294 294 294 293 293 293 293 293 293 293 294 294 294 294 294 294 295 295 295 296 296 297 297 298 298 299 299 300 300 301 301 301 301 302 302 302
297 297 298 299 300 300 301 302 303 305 306 306 306 306 305 302 298 294 290 289 287 286 286 286 287 287 288 288 289 289 290 290 291 291 292 292 292 292 293 293 293 294 294 294 294 294 294 293 293 293 293 293 292 292 293 293 293 293 293 293 293 293 293 293 294 294 294 295 295 296 296 297 297 298 298 299 299 299 300 300 300 300 301 301 302
296 297 298 299 300 301 301 302 304 305 305 306 306 305 304 301 297 293 290 288 287 285 285 286 286 287 287 288 288 289 290 290 291 291 291 292 292 292 292 293 293 293 293 293 293 293 293 292 292 292 292 292 292 292 292 292 292 292 292 292 292 292 292 293 293 294 294 295 295 296 296 297 297 297 298 298 298 298 298 298 299 299 300 300 301
296 297 298 299 300 300 301 302 303 304 305 305 305 304 303 299 295 292 290 288 286 285 285 285 286 287 287 288 289 289 290 290 290 291 291 291 292 292 292 292 292 292 292 292 292 292 292 292 292 291 291 291 291 291 291 291 291 291 291 291 292 292 292 293 294 294 295 295 295 296 296 296 296 296 297 297 297 297 297 298 298 299 299 300 300
296 297 298 298 299 300 301 302 303 304 304 304 304 303 301 298 294 292 290 288 287 286 286 286 287 287 288 288 289 289 289 290 290 290 291 291 291 292 292 292 292 292 292 292 292 291 291 291 291 291 291 291 290 290 290 290 291 291 291 292 292 293 293 294 294 294 295 295 295 295 295 295 295 295 295 296 296 296 297 297 298 298 299 299 299
296 297 297 298 299 300 301 302 302 303 303 303 303 301 299 296 293 292 290 289 288 287 287 287 288 288 288 288 289 289 290 290 290 291 291 291 291 291 291 291 291 291 291 290 290 290 290 290 290 289 289 289 289 290 290 290 291 291 292 292 293 293 293 294 294 294 294 294 294 294 294 294 294 294 295 295 296 296 296 297 297 298 298 298 298
296 296 297 298 299 300 301 301 302 302 302 302 301 299 297 294 292 291 290 290 289 288 288 288 288 289 289 289 290 290 290 290 290 290 291 290 290 290 290 290 290 289 289 289 289 289 289 289 289 289 289 289 290 290 291 291 292 292 292 293 293 293 293 293 292 292 292 293 293 293 293 294 294 294 295 295 295 296 296 296 296 297 297 297 297
Height
10767 10767 10766 10765 10765 10764 10764 10765 10764 10763 10762 10760 10759 10757 10755 10753 10751 10749 10747 10744 10740 10738 10737 10735 10734 10732 10729 10726 10722 10719 10716 10711 10707 10704 10703 10701 10699 10696 10694 10689 10685 10682 10678 10674 10670 10665 10661 10657 10652 10647 10642 10636 10631 10625 10619 10614 10609 10603 10598 10593 10587 10582 10577 10571 10566 10558 10550 10544 10538 10530 10523 10515 10507 10500 10495 10489 10481 10473 10466 10459 10451 10446 10440 10431 10420
10760 10760 10758 10756 10755 10754 10753 10754 10754 10754 10753 10751 10750 10748 10747 10745 10743 10741 10739 10735 10732 10730 10728 10726 10725 10723 10721 10718 10714 10711 10708 10704 10699 10695 10693 10692 10690 10687 10684 10680 10676 10673 10669 10665 10660 10656 10652 10647 10642 10637 10631 10626 10620 10615 10609 10604 10598 10593 10587 10582 10577 10572 10567 10561 10556 10550 10541 10534 10527 10519 10512 10505 10498 10491 10486 10480 10471 10463 10456 10448 10440 10433 10428 10421 10411
10752 10751 10749 10748 10747 10745 10743 10743 10742 10743 10742 10741 10740 10739 10738 10736 10734 10732 10730 10726 10723 10721 10719 10717 10715 10714 10712 10709 10705 10702 10700 10696 10691 10686 10683 10682 10680 10677 10674 10671 10667 10663 10659 10655 10651 10646 10642 10637 10632 10626 10620 10615 10610 10604 10599 10593 10587 10582 10576 10572 10567 10561 10556 10551 10546 10541 10534 10525 10517 10510 10502 10494 10488 10483 10477 10469 10462 10455 10447 10439 10431 10422 10417 10411 10401
10743 10742 10740 10739 10738 10736 10734 10733 10732 10732 10731 10730 10730 10729 10728 10726 10724 10722 10720 10716 10713 10711 10710 10708 10706 10704 10702 10699 10696 10693 10691 10688 10683 10677 10673 10671 10670 10667 10664 10660 10657 10653 10649 10645 10641 10636 10631 10626 10621 10615 10609 10604 10599 10593 10588 10582 10576 10571 10565 10561 10556 10551 10545 10541 10537 10532 10525 10517 10508 10500 10493 10485 10479 10474 10468 10459 10453 10446 10438 10430 10422 10413 10406 10399 10391
10732 10731 10730 10730 10728 10727 10726 10724 10723 10722 10721 10720 10719 10718 10717 10716 10714 10712 10709 10706 10703 10702 10700 10698 10696 10693 10691 10688 10686 10684 10681 10679 10675 10669 10664 10661 10659 10657 10653 10650 10646 10642 10638 10634 10630 10625 10620 10615 10609 10604 10598 10593 10588 10582 10576 10571 10565 10559 10555 10550 10545 10540 10535 10531 10527 10521 10515 10508 10499 10490 10483 10476 10471 10465 10458 10451 10445 10437 10427 10418 10410 10403 10396 10388 10380
10721 10720 10720 10719 10719 10718 10717 10715 10714 10713 10712 10711 10709 10708 10707 10706 10704 10702 10699 10696 10694 10691 10690 10688 10685 10683 10681 10678 10676 10673 10671 10669 10666 10659 10654 10651 10649 10646 10643 10639 10635 10631 10627 10623 10618 10613 10608 10603 10598 10592 10587 10582 10576 10571 10565 10559 10554 10549 10545 10540 10534 10529 10524 10520 10516 10511 10504 10498 10490 10481 10473 10468 10463 10455 10448 10442 10436 10430 10421 10409 10399 10391 10385 10378 10369
10711 10710 10710 10709 10709 10708 10708 10707 10706 10704 10703 10701 10699 10698 10697 10695 10694 10692 10689 10687 10684 10681 10679 10677 10675 10672 10669 10666 10664 10662 10659 10658 10656 10650 10644 10641 10638 10635 10632 10628 10624 10620 10616 10611 10607 10602 10597 10592 10586 10581 10576 10570 10565 10560 10554 10548 10543 10539 10534 10529 10523 10519 10514 10510 10505 10500 10494 10487 10479 10472 10464 10459 10454 10446 10439 10432 10427 10421 10415 10406 10394 10383 10374 10367 10361
10700 10700 10699 10698 10698 10698 10698 10697 10696 10694 10693 10691 10689 10688 10686 10685 10683 10681 10679 10676 10673 10671 10668 10666 10664 10662 10659 10656 10652 10649 10648 10647 10644 10640 10636 10632 10628 10625 10621 10617 10613 10608 10604 10600 10595 10590 10585 10580 10575 10570 10564 10559 10554 10549 10543 10538 10533 10528 10524 10518 10513 10508 10504 10500 10495 10489 10483 10476 10469 10462 10455 10450 10444 10437 10430 10423 10417 10410 10404 10397 10388 10378 10367 10358 10353
10689 10689 10688 10687 10687 10686 10686 10685 10685 10683 10682 10680 10679 10677 10675 10674 10672 10670 10668 10666 10663 10660 10657 10655 10653 10651 10649 10646 10641 10638 10636 10635 10631 10628 10625 10622 10618 10614 10609 10606 10602 10597 10592 10588 10583 10578 10573 10568 10563 10558 10553 10548 10543 10538 10533 10528 10523 10518 10513 10508 10503 10498 10493 10489 10485 10479 10472 10465 10458 10451 10445 10440 10434 10427 10420 10414 10407 10401 10394 10386 10378 10370 10361 10351 10342
10678 10678 10677 10676 10675 10675 10673 10673 10672 10671 10670 10668 10667 10665 10664 10662 10660 10659 10657 10654 10652 10650 10647 10645 10642 10639 10637 10636 10632 10628 10626 10623 10619 10616 10613 10610 10606 10602 10598 10594 10590 10585 10581 10576 10571 10566 10561 10557 10552 10547 10543 10538 10533 10527 10522 10517 10513 10507 10502 10497 10492 10487 10482 10478 10474 10468 10461 10454 10448 10441 10436 10430 10424 10418 10411 10404 10398 10391 10384 10377 10369 10360 10353 10344 10334
10668 10667 10666 10666 10665 10664 10662 10661 10660 10659 10658 10656 10654 10653 10651 10649 10648 10646 10645 10643 10640 10638 10636 10633 10630 10628 10625 10623 10620 10618 10615 10612 10608 10605 10601 10598 10594 10591 10587 10582 10578 10573 10569 10564 10560 10555 10550 10546 10541 10537 10532 10527 10521 10516 10511 10506 10502 10497 10492 10486 10480 10475 10472 10467 10462 10457 10450 10443 10437 10432 10426 10419 10413 10407 10401 10394 10387 10380 10373 10366 10359 10350 10343 10337 10330
10655 10654 10654 10654 10653 10652 10651 10650 10648 10647 10645 10643 10641 10639 10637 10636 10634 10632 10631 10629 10627 10625 10623 10620 10618 10615 10613 10611 10607 10604 10602 10599 10596 10593 10589 10586 10582 10578 10575 10570 10565 10561 10557 10552 10548 10543 10539 10535 10531 10526 10521 10516 10510 10505 10501 10496 10491 10486 10481 10475 10469 10465 10461 10456 10452 10446 10439 10432 10426 10421 10416 10409 10403 10397 10391 10384 10376 10369 10362 10354 10347 10339 10332 10326 10321
10642 10641 10640 10640 10640 10639 10638 10637 10635 10634 10632 10630 10628 10626 10624 10622 10621 10619 10617 10615 10613 10611 10608 10606 10604 10601 10599 10597 10594 10590 10587 10583 10581 10579 10576 10572 10569 10565 10561 10557 10552 10548 10544 10540 10536 10532 10528 10524 10520 10515 10509 10504 10498 10494 10490 10485 10480 10475 10469 10463 10458 10454 10450 10446 10441 10435 10428 10421 10416 10411 10405 10399 10392 10386 10380 10373 10366 10359 10351 10343 10335 10327 10320 10313 10308
10630 10629 10628 10627 10627 10626 10625 10624 10622 10620 10619 10617 10615 10613 10611 10609 10608 10606 10604 10601 10599 10597 10595 10592 10590 10587 10585 10583 10580 10577 10573 10569 10566 10564 10561 10558 10555 10551 10547 10543 10539 10535 10531 10528 10524 10521 10517 10512 10508 10503 10497 10491 10487 10483 10479 10474 10468 10462 10457 10451 10446 10443 10440 10436 10431 10425 10418 10411 10405 10399 10393 10387 10381 10375 10369 10362 10356 10348 10340 10333 10325 10318 10310 10302 10295
10618 10617 10616 10615 10615 10614 10612 10611 10609 10607 10606 10604 10602 10601 10599 10597 10595 10593 10591 10589 10586 10584 10581 10579 10576 10574 10571 10569 10566 10563 10559 10555 10552 10549 10546 10544 10540 10536 10532 10529 10526 10522 10519 10515 10512 10508 10504 10500 10496 10491 10485 10479 10476 10472 10468 10462 10456 10450 10444 10439 10435 10432 10428 10424 10420 10414 10407 10400 10395 10389 10382 10375 10369 10363 10357 10351 10344 10337 10329 10321 10315 10308 10300 10291 10282
10606 10605 10605 10604 10603 10602 10600 10598 10596 10595 10593 10591 10590 10588 10586 10584 10582 10580 10578 10575 10573 10570 10567 10564 10562 10559 10557 10554 10551 10548 10544 10540 10538 10535 10531 10529 10525 10521 10518 10515 10512 10509 10506 10502 10499 10495 10492 10488 10483 10478 10472 10468 10465 10462 10456 10450 10443 10438 10432 10427 10423 10420 10415 10411 10407 10402 10395 10389 10384 10378 10370 10363 10357 10351 10346 10339 10333 10326 10318 10310 10303 10297 10289 10281 10271
10596 10595 10594 10592 10591 10589 10587 10586 10584 10582 10581 10579 10577 10575 10573 10570 10567 10565 10563 10560 10558 10555 10552 10550 10547 10544 10542 10539 10537 10533 10529 10525 10523 10520 10516 10514 10510 10507 10504 10501 10499 10496 10493 10489 10486 10483 10479 10475 10471 10465 10460 10457 10454 10450 10444 10437 10431 10426 10421 10416 10412 10408 10403 10399 10395 10390 10384 10379 10373 10366 10358 10352 10345 10339 10333 10327 10321 10315 10307 10300 10293 10286 10279 10271 10263
10585 10585 10582 10580 10578 10576 10574 10573 10571 10569 10567 10566 10564 10561 10558 10556 10552 10550 10547 10545 10542 10539 10537 10534 10531 10528 10526 10523 10521 10518 10514 10511 10508 10505 10502 10499 10497 10494 10491 10488 10486 10482 10479 10476 10473 10470 10466 10462 10458 10453 10449 10446 10443 10438 10432 10425 10420 10415 10410 10405 10400 10396 10391 10386 10383 10379 10374 10368 10361 10354 10347 10340 10334 10328 10321 10315 10309 10302 10296 10289 10282 10275 10268 10260 10253
10572 10571 10569 10567 10565 10563 10561 10560 10557 10554 10552 10550 10549 10546 10543 10540 10537 10534 10531 10529 10527 10524 10521 10518 10515 10512 10510 10507 10505 10502 10498 10495 10492 10490 10488 10485 10483 10480 10477 10475 10472 10469 10466 10464 10461 10457 10453 10449 10445 10441 10438 10434 10431 10426 10420 10414 10409 10404 10399 10394 10390 10385 10379 10374 10370 10367 10361 10356 10349 10341 10335 10328 10322 10316 10309 10303 10296 10289 10283 10277 10270 10264 10257 10249 10242
10558 10556 10554 10552 10549 10547 10546 10543 10540 10538 10536 10534 10532 10529 10526 10523 10521 10518 10515 10512 10510 10507 10504 10502 10499 10497 10494 10492 10490 10486 10482 10479 10476 10475 10473 10471 10469 10466 10463 10461 10458 10456 10454 10452 10448 10444 10441 10438 10434 10430 10426 10422 10419 10414 10408 10403 10398 10393 10387 10383 10379 10373 10366 10362 10358 10354 10348 10342 10336 10329 10323 10316 10310 10304 10297 10290 10284 10277 10270 10264 10258 10251 10245 10238 10230
10543 10541 10538 10535 10532 10530 10528 10525 10523 10521 10519 10518 10516 10514 10511 10508 10505 10502 10500 10496 10494 10491 10488 10486 10484 10482 10479 10477 10475 10472 10468 10465 10463 10461 10459 10457 10455 10452 10450 10448 10446 10444 10442 10439 10435 10432 10429 10426 10422 10418 10414 10411 10408 10402 10397 10391 10386 10381 10376 10372 10367 10361 10355 10350 10346 10341 10335 10329 10323 10316 10310 10304 10297 10290 10284 10277 10271 10264 10258 10251 10245 10238 10232 10226 10219
10527 10524 10522 10518 10515 10513 10510 10508 10507 10505 10503 10502 10500 10498 10495 10492 10490 10487 10484 10482 10479 10476 10473 10471 10469 10467 10465 10463 10461 10458 10455 10452 10450 10449 10446 10444 10443 10440 10438 10436 10434 10432 10430 10427 10424 10421 10418 10414 10410 10407 10403 10400 10396 10390 10385 10379 10374 10368 10364 10360 10355 10350 10345 10339 10333 10328 10322 10316 10310 10303 10297 10291 10284 10277 10270 10264 10257 10251 10245 10238 10232 10225 10219 10213 10207
10510 10508 10505 10502 10499 10497 10495 10492 10490 10489 10487 10485 10483 10482 10479 10477 10475 10473 10470 10468 10465 10462 10460 10457 10455 10454 10451 10449 10447 10445 10442 10440 10438 10436 10434 10433 10431 10429 10427 10426 10423 10421 10419 10416 10413 10410 10406 10403 10399 10396 10393 10389 10384 10378 10372 10366 10361 10356 10352 10348 10344 10339 10334 10327 10321 10315 10310 10304 10298 10291 10285 10279 10272 10265 10258 10251 10245 10239 10233 10227 10220 10213 10207 10200 10195
10496 10493 10490 10488 10485 10482 10480 10477 10475 10473 10471 10470 10468 10466 10464 10462 10460 10458 10456 10454 10452 10449 10447 10444 10442 10441 10439 10437 10435 10433 10431 10429 10426 10424 10422 10421 10420 10418 10417 10415 10412 10410 10407 10404 10401 10398 10395 10391 10387 10384 10381 10377 10371 10365 10359 10353 10349 10344 10341 10337 10333 10328 10322 10316 10309 10303 10298 10291 10285 10279 10273 10268 10261 10254 10247 10241 10234 10228 10222 10216 10209 10202 10196 10189 10183
10483 10480 10478 10475 10472 10469 10467 10464 10462 10460 10458 10456 10454 10453 10451 10449 10447 10445 10443 10441 10439 10437 10435 10432 10430 10428 10426 10425 10424 10422 10420 10417 10414 10412 10410 10409 10409 10408 10406 10403 10400 10397 10395 10392 10389 10386 10383 10379 10375 10372 10369 10364 10358 10351 10346 10341 10336 10333 10329 10325 10322 10317 10311 10304 10298 10292 10286 10279 10273 10267 10262 10256 10250 10244 10237 10231 10224 10218 10211 10205 10199 10193 10186 10178 10171
10470 10468 10466 10463 10461 10459 10456 10454 10451 10449 10447 10445 10443 10441 10439 10437 10435 10433 10432 10430 10427 10425 10423 10420 10418 10417 10415 10413 10412 10410 10408 10405 10402 10400 10398 10398 10397 10396 10394 10391 10388 10385 10382 10380 10378 10375 10371 10367 10363 10359 10355 10351 10345 10339 10333 10328 10325 10321 10317 10313 10309 10305 10300 10293 10287 10281 10275 10268 10262 10255 10250 10244 10238 10232 10227 10220 10213 10207 10201 10194 10187 10182 10176 10169 10161
10459 10457 10455 10453 10451 10449 10447 10445 10443 10441 10438 10436 10434 10432 10430 10428 10425 10423 10421 10419 10417 10414 10412 10410 10407 10405 10404 10402 10400 10399 10397 10394 10391 10388 10387 10387 10385 10383 10381 10379 10376 10373 10370 10368 10366 10363 10359 10354 10350 10346 10341 10337 10332 10326 10320 10316 10313 10309 10305 10300 10297 10293 10288 10283 10276 10270 10264 10258 10251 10244 10238 10232 10227 10221 10216 10209 10202 10196 10190 10184 10176 10170 10165 10159 10150
10450 10448 10446 10444 10442 10440 10438 10436 10434 10432 10430 10428 10426 10423 10421 10419 10416 10414 10412 10410 10407 10404 10402 10399 10397 10395 10393 10391 10389 10388 10385 10382 10379 10377 10376 10375 10373 10370 10369 10367 10364 10361 10358 10356 10353 10351 10347 10342 10337 10332 10327 10323 10318 10313 10308 10303 10300 10296 10292 10288 10284 10281 10277 10271 10265 10258 10253 10247 10241 10234 10227 10221 10215 10210 10204 10198 10191 10185 10179 10172 10165 10158 10152 10146 10139
10442 10440 10438 10436 10434 10432 10430 10428 10426 10424 10422 10420 10417 10415 10413 10410 10408 10406 10403 10401 10398 10395 10392 10389 10387 10385 10383 10380 10378 10377 10374 10370 10368 10366 10365 10363 10360 10358 10357 10355 10351 10349 10346 10343 10340 10338 10334 10329 10323 10319 10314 10310 10305 10301 10295 10290 10287 10284 10280 10276 10272 10268 10264 10259 10253 10247 10242 10236 10230 10224 10217 10210 10204 10199 10193 10187 10180 10174 10167 10161 10154 10147 10140 10134 10126
10433 10432 10431 10429 10427 10425 10423 10421 10419 10417 10414 10412 10409 10407 10405 10402 10399 10397 10394 10392 10389 10386 10383 10380 10377 10375 10373 10370 10368 10366 10363 10360 10357 10355 10353 10351 10348 10346 10344 10341 10339 10337 10334 10331 10328 10324 10320 10315 10310 10306 10302 10297 10293 10288 10282 10277 10274 10270 10266 10263 10260 10256 10251 10246 10241 10236 10230 10225 10219 10213 10207 10200 10193 10188 10182 10176 10169 10162 10155 10149 10142 10136 10129 10122 10114
10426 10424 10423 10421 10419 10418 10415 10413 10411 10409 10407 10404 10402 10399 10397 10394 10391 10388 10385 10382 10379 10376 10373 10370 10367 10365 10362 10359 10357 10355 10353 10350 10346 10343 10342 10339 10336 10334 10331 10328 10326 10324 10322 10318 10315 10311 10306 10301 10298 10294 10289 10285 10280 10275 10269 10265 10261 10256 10252 10250 10248 10244 10239 10234 10228 10223 10218 10212 10207 10201 10195 10188 10181 10176 10170 10164 10157 10149 10143 10137 10131 10124 10117 10109 10102
10418 10417 10415 10413 10411 10409 10407 10405 10402 10400 10398 10396 10393 10391 10388 10385 10383 10379 10376 10373 10370 10367 10364 10361 10358 10355 10352 10349 10346 10344 10342 10340 10336 10333 10330 10327 10324 10322 10319 10317 10314 10312 10309 10305 10302 10297 10292 10288 10286 10282 10277 10272 10268 10262 10257 10253 10248 10243 10240 10238 10235 10231 10226 10221 10215 10210 10204 10199 10193 10188 10181 10174 10168 10163 10157 10151 10144 10136 10130 10124 10118 10111 10104 10097 10089
10410 10408 10406 10404 10402 10400 10398 10396 10393 10391 10389 10386 10384 10381 10379 10376 10373 10370 10367 10363 10360 10357 10354 10351 10348 10345 10342 10339 10336 10333 10331 10329 10326 10322 10318 10315 10312 10309 10307 10306 10303 10299 10295 10292 10289 10285 10280 10276 10273 10269 10265 10260 10255 10250 10245 10241 10235 10231 10228 10225 10222 10218 10213 10208 10202 10196 10190 10184 10179 10173 10167 10161 10155 10149 10143 10137 10130 10123 10117 10110 10104 10098 10091 10083 10077
10401 10399 10397 10395 10393 10390 10388 10386 10383 10381 10379 10376 10373 10371 10368 10365 10362 10359 10355 10353 10349 10346 10343 10340 10337 10334 10331 10328 10325 10323 10320 10318 10315 10311 10307 10303 10299 10296 10295 10294 10291 10286 10283 10280 10277 10273 10268 10263 10260 10255 10251 10247 10243 10238 10233 10228 10223 10219 10216 10212 10208 10205 10200 10194 10188 10181 10175 10170 10165 10159 10153 10147 10141 10135 10129 10123 10116 10109 10103 10097 10091 10085 10078 10070 10064
10390 10388 10386 10384 10382 10379 10377 10375 10373 10370 10368 10365 10363 10360 10357 10354 10351 10347 10344 10340 10337 10334 10331 10328 10325 10323 10320 10317 10314 10311 10308 10305 10302 10299 10295 10291 10287 10283 10282 10280 10277 10273 10270 10267 10264 10259 10255 10251 10247 10242 10237 10234 10230 10226 10221 10215 10210 10206 10202 10197 10194 10191 10187 10180 10173 10166 10160 10156 10150 10145 10139 10133 10127 10121 10115 10109 10102 10096 10090 10084 10077 10071 10065 10058 10052
10378 10376 10374 10372 10370 10368 10366 10364 10361 10359 10357 10354 10352 10349 10346 10342 10339 10335 10332 10329 10325 10322 10318 10315 10312 10310 10307 10305 10303 10300 10297 10293 10289 10286 10282 10278 10274 10271 10269 10266 10262 10259 10256 10253 10249 10246 10243 10239 10234 10229 10224 10220 10217 10212 10207 10202 10196 10192 10187 10183 10179 10176 10172 10165 10158 10151 10145 10140 10135 10130 10124 10118 10113 10107 10101 10095 10088 10082 10076 10070 10064 10057 10051 10045 10038
10366 10364 10363 10360 10358 10356 10354 10352 10349 10347 10344 10341 10339 10336 10333 10330 10326 10323 10320 10317 10313 10310 10306 10303 10300 10297 10294 10292 10290 10288 10285 10282 10278 10274 10270 10266 10263 10259 10256 10253 10249 10246 10243 10239 10235 10232 10231 10227 10222 10216 10212 10207 10203 10198 10193 10188 10182 10178 10173 10169 10165 10161 10157 10150 10143 10137 10130 10125 10120 10114 10108 10103 10097 10092 10086 10080 10073 10067 10061 10055 10049 10044 10038 10031 10025
10354 10353 10351 10349 10346 10344 10342 10339 10337 10334 10331 10329 10326 10323 10320 10317 10314 10310 10307 10304 10301 10298 10294 10291 10288 10285 10282 10279 10276 10273 10272 10269 10266 10262 10258 10254 10251 10248 10244 10240 10237 10234 10230 10226 10222 10219 10217 10214 10209 10204 10199 10193 10188 10184 10179 10174 10169 10164 10160 10155 10151 10147 10141 10135 10129 10122 10116 10110 10104 10099 10093 10087 10082 10076 10070 10064 10058 10052 10046 10040 10035 10029 10023 10017 10011
10342 10340 10338 10336 10334 10332 10330 10328 10325 10322 10320 10317 10313 10310 10307 10304 10300 10297 10294 10291 10288 10285 10281 10278 10275 10273 10270 10267 10264 10261 10258 10255 10252 10249 10246 10242 10239 10235 10232 10229 10225 10221 10217 10213 10209 10205 10203 10199 10195 10191 10186 10180 10174 10169 10164 10159 10155 10150 10146 10141 10137 10132 10126 10119 10113 10107 10100 10094 10088 10083 10078 10072 10066 10061 10055 10048 10042 10036 10031 10026 10020 10015 10008 10003 9997
10329 10327 10325 10324 10321 10319 10317 10315 10312 10309 10306 10303 10300 10297 10293 10290 10287 10284 10281 10278 10275 10272 10269 10266 10263 10260 10258 10255 10253 10250 10246 10243 10239 10236 10233 10230 10226 10222 10219 10216 10212 10208 10205 10200 10196 10192 10189 10185 10181 10177 10172 10167 10161 10156 10150 10145 10140 10135 10130 10126 10121 10116 10109 10103 10096 10090 10084 10078 10072 10067 10062 10056 10050 10045 10039 10032 10026 10021 10016 10011 10006 10000 9994 9988 9983
10316 10314 10312 10310 10307 10305 10302 10300 10297 10295 10292 10289 10286 10283 10280 10276 10273 10270 10267 10264 10262 10259 10255 10252 10249 10247 10245 10242 10240 10238 10235 10231 10227 10223 10220 10217 10213 10210 10206 10202 10198 10195 10191 10187 10182 10177 10174 10170 10167 10162 10157 10151 10146 10140 10135 10129 10124 10119 10114 10109 10104 10099 10092 10086 10080 10074 10068 10062 10057 10052 10047 10041 10035 10029 10023 10017 10011 10006 10001 9996 9990 9985 9979 9974 9968
10303 10302 10300 10297 10294 10292 10289 10287 10284 10282 10279 10276 10273 10269 10265 10262 10259 10255 10252 10250 10248 10245 10242 10239 10236 10233 10231 10229 10226 10224 10222 10218 10215 10211 10207 10204 10200 10197 10193 10189 10185 10181 10177 10173 10168 10163 10159 10155 10151 10145 10140 10134 10129 10123 10118 10113 10107 10102 10098 10093 10088 10082 10076 10070 10063 10057 10051 10046 10042 10037 10032 10026 10019 10013 10007 10001 9996 9990 9985 9980 9975 9969 9963 9958 9953
10290 10288 10286 10284 10282 10279 10277 10274 10272 10269 10265 10262 10259 10255 10251 10248 10244 10241 10238 10236 10233 10231 10228 10225 10222 10219 10217 10214 10212 10210 10207 10204 10201 10197 10193 10189 10186 10182 10178 10174 10171 10167 10163 10158 10153 10148 10144 10140 10135 10130 10124 10118 10112 10106 10101 10096 10090 10086 10081 10077 10072 10067 10060 10054 10047 10040 10035 10030 10026 10021 10016 10009 10003 9997 9991 9985 9979 9974 9969 9964 9959 9953 9948 9942 9937
10276 10274 10271 10269 10268 10265 10263 10261 10258 10254 10251 10248 10244 10241 10238 10234 10230 10227 10224 10221 10219 10217 10214 10211 10208 10205 10202 10199 10197 10194 10192 10188 10185 10182 10178 10174 10170 10166 10162 10158 10155 10151 10147 10142 10137 10132 10128 10125 10120 10115 10109 10103 10096 10090 10085 10079 10073 10068 10063 10059 10055 10049 10043 10036 10029 10023 10018 10014 10010 10005 9999 9993 9986 9980 9974 9968 9963 9957 9952 9948 9943 9937 9932 9926 9921
10262 10260 10258 10256 10253 10251 10249 10246 10243 10240 10237 10233 10229 10226 10222 10219 10215 10212 10209 10206 10204 10201 10199 10197 10194 10191 10188 10185 10181 10178 10175 10172 10169 10166 10162 10158 10155 10151 10147 10142 10139 10134 10130 10125 10120 10115 10111 10107 10103 10098 10093 10087 10080 10074 10068 10062 10056 10050 10045 10040 10036 10031 10024 10017 10011 10006 10001 9997 9992 9987 9981 9975 9969 9963 9957 9952 9946 9941 9936 9931 9926 9921 9915 9911 9906
10248 10246 10243 10241 10239 10236 10233 10230 10227 10224 10220 10217 10213 10210 10206 10203 10200 10197 10193 10191 10189 10186 10184 10181 10179 10176 10173 10170 10166 10163 10160 10156 10153 10150 10146 10142 10138 10134 10130 10126 10122 10118 10113 10108 10103 10098 10093 10088 10084 10079 10075 10069 10063 10057 10051 10045 10038 10032 10027 10021 10017 10012 10006 9999 9993 9989 9984 9979 9974 9969 9963 9956 9950 9945 9940 9935 9929 9924 9919 9914 9909 9904 9900 9895 9891
10233 10230 10228 10225 10223 10220 10217 10213 10210 10207 10204 10200 10197 10194 10190 10187 10184 10181 10178 10176 10173 10171 10168 10166 10163 10160 10158 10154 10151 10148 10144 10140 10137 10133 10129 10125 10121 10117 10113 10109 10105 10100 10095 10090 10085 10080 10075 10070 10065 10060 10055 10050 10044 10039 10033 10027 10021 10014 10008 10003 9997 9992 9986 9981 9976 9971 9965 9960 9955 9949 9943 9937 9931 9927 9922 9917 9911 9906 9901 9897 9892 9888 9884 9880 9876
10217 10215 10212 10209 10206 10203 10200 10197 10194 10191 10188 10184 10181 10178 10175 10171 10168 10165 10162 10160 10157 10155 10153 10150 10147 10144 10141 10138 10135 10132 10128 10124 10121 10116 10112 10108 10104 10099 10095 10091 10086 10082 10077 10072 10066 10060 10055 10050 10045 10040 10035 10030 10025 10019 10014 10008 10002 9996 9990 9983 9977 9972 9966 9961 9956 9951 9945 9940 9934 9929 9923 9917 9912 9908 9903 9898 9893 9888 9883 9879 9875 9872 9868 9864 9861
10201 10198 10196 10193 10189 10187 10184 10181 10177 10175 10171 10168 10165 10162 10158 10155 10151 10148 10146 10143 10141 10138 10136 10133 10130 10128 10125 10121 10118 10115 10111 10107 10104 10099 10094 10090 10085 10080 10076 10072 10067 10062 10058 10053 10047 10041 10035 10030 10025 10020 10014 10009 10004 9998 9993 9987 9981 9975 9969 9963 9957 9951 9946 9940 9934 9929 9924 9918 9913 9908 9902 9897 9892 9888 9883 9878 9874 9869 9865 9861 9858 9855 9851 9848 9845
10185 10182 10179 10176 10173 10170 10167 10164 10161 10158 10155 10151 10148 10145 10141 10138 10135 10132 10129 10127 10124 10122 10119 10116 10113 10111 10107 10104 10101 10097 10093 10089 10085 10080 10076 10071 10066 10061 10057 10052 10047 10042 10037 10032 10028 10022 10016 10010 10005 10000 9995 9990 9984 9978 9973 9967 9961 9954 9949 9942 9936 9930 9924 9918 9912 9907 9902 9897 9892 9887 9882 9877 9872 9868 9863 9859 9855 9852 9847 9843 9840 9838 9835 9832 9829
10168 10165 10162 10159 10156 10153 10150 10147 10144 10140 10137 10134 10131 10128 10125 10122 10119 10116 10113 10111 10108 10105 10102 10099 10096 10093 10089 10086 10082 10078 10074 10070 10066 10061 10057 10051 10046 10042 10037 10032 10027 10022 10017 10012 10007 10001 9995 9990 9984 9979 9973 9969 9963 9958 9952 9946 9939 9933 9927 9921 9914 9908 9902 9896 9891 9886 9881 9877 9872 9867 9862 9857 9852 9848 9844 9840 9837 9834 9830 9826 9823 9821 9818 9815 9813